Regional Weather Roundup
Issued by NWS

Home | Current Version | Previous Version | Text Only | Print | Product List | Glossary Off
Versions: 1 2 3 4 5 6 7 8 9 10 11 12 13 14 15 16 17 18 19 20 21 22 23 24 25 26 27 28 29 30 31 32 33 34 35 36 37 38 39 40 41 42 43 44 45 46 47 48 49 50

000
ASUS43 KIND 241310
RWRIN

WEATHER ROUNDUP FOR INDIANA
NATIONAL WEATHER SERVICE INDIANAPOLIS IN
900 AM EDT TUE APR 24 2018

NOTE: "FAIR" INDICATES FEW OR NO CLOUDS BELOW 12,000 FEET WITH NO
SIGNIFICANT WEATHER AND/OR OBSTRUCTIONS TO VISIBILITY.

* - STATION DOES NOT REPORT WEATHER SUCH AS PRECIPITATION OR FOG.

+ - STATION NOT QUALITY CONTROLLED BY THE NATIONAL WEATHER SERVICE.
    USE DATA WITH CAUTION...ESPECIALLY DEWPOINT AND RELATIVE
    HUMIDITY OBSERVATIONS.

INZ001>003-010>013-019-020-241400-
NORTHWEST INDIANA

CITY           SKY/WX    TMP DP  RH WIND       PRES   REMARKS
GARY /AIRPORT/ PTSUNNY   50  45  81 CALM      30.07R
KNOX *+        CLOUDY    52  50  93 E7        30.04S
LA PORTE +     CLOUDY    53  49  86 E7        30.06S
MICHIGAN CITY+ CLOUDY    52  48  87 E3        30.07R
MONTICELLO +   CLOUDY    52  50  93 NE6       30.02S
VALPARAISO     CLOUDY    54  50  86 NE6       30.05S

$$

LMZ046-743>745-241400-
SOUTHERN LAKE MICHIGAN

STATION/POSITION TIME  TEMP WIND        PRES
                       AIR  DIR/SP/G
                 (UTC) (F)  (DEG/KT/KT) (MB)
BURNS HARBOR     1240   45   70/  4/  5 1018.6R
MICHIGAN CITY    1240   45   40/  7/  7   N/A

$$

INZ004-005-014>016-021>024-241400-
NORTH CENTRAL INDIANA

CITY           SKY/WX    TMP DP  RH WIND       PRES   REMARKS
ELKHART        CLOUDY    54  48  82 E8        30.05F
GOSHEN         CLOUDY    53  49  86 E10       30.05S
LOGANSPORT +   CLOUDY    52  48  87 E7        30.03S
PERU/GRISSOM   CLOUDY    53  53 100 E9        30.01S
ROCHESTER +    CLOUDY    54  50  87 NE6       30.04S
SOUTH BEND     CLOUDY    52  49  89 E6        30.07S
WARSAW +       CLOUDY    52  48  87 E7        30.04F

$$

INZ006>009-017-018-025>027-241400-
NORTHEAST INDIANA

CITY           SKY/WX    TMP DP  RH WIND       PRES   REMARKS
ANGOLA *+      CLOUDY    54  48  82 E10       30.06S
AUBURN +       CLOUDY    54  48  82 E10G18    30.06S
FORT WAYNE     CLOUDY    54  50  86 E12       30.05S
HUNTINGTON +   CLOUDY    52  49  91 E6        30.03S

$$

INZ028-029-035-036-043>045-051>053-241400-
WEST CENTRAL INDIANA

CITY           SKY/WX    TMP DP  RH WIND       PRES   REMARKS
LAFAYETTE      CLOUDY    53  50  89 E12       30.01R
TERRE HAUTE    CLOUDY    54  51  90 NE8       29.98R

$$

INZ030>032-037>040-046>048-054>057-064-065-241400-
CENTRAL INDIANA

CITY           SKY/WX    TMP DP  RH WIND       PRES   REMARKS
ANDERSON       CLOUDY    50  50 100 E6        30.01S
COLUMBUS       CLOUDY    52 N/A N/A NE7       29.97S
FRANKFORT +    CLOUDY    54  51  89 E8        30.02S
GREENWOOD *+   CLOUDY    51  50  95 NE8       29.98S
INDIANAPOLIS   DRIZZLE   52  51  97 NE9       29.98S
-EAGLE CREEK   CLOUDY    53  50  89 E6        29.98S
KOKOMO +       CLOUDY    53  50  89 E12       30.02S
MARION +       CLOUDY    52  48  88 E9        30.02S
MT COMFORT *+  CLOUDY    52  52 100 E8        29.99S
SHELBYVILLE    LGT RAIN  53  49  86 E10       29.96F
ZIONSVILLE +   DRIZZLE   50  49  97 E7        30.00S

$$

INZ033-034-041-042-049-050-058-059-241400-
EAST CENTRAL INDIANA

CITY           SKY/WX    TMP DP  RH WIND       PRES   REMARKS
MUNCIE         CLOUDY    53  50  89 E10       30.00F

$$

INZ060-061-067>069-081>083-085>088-241400-
SOUTHWEST INDIANA

CITY           SKY/WX    TMP DP  RH WIND       PRES   REMARKS
EVANSVILLE     LGT RAIN  55  54  96 N6        29.95S
HUNTINGBURG *+ LGT RAIN  53  52  96 N6        29.95R FOG

$$

INZ062-063-066-070>080-084-089>092-241400-
SOUTH CENTRAL AND SOUTHEAST INDIANA

CITY           SKY/WX    TMP DP  RH WIND       PRES   REMARKS
BLOOMINGTON    LGT RAIN  52  51  97 NE6       29.96R

$$





USA.gov is the U.S. government's official web portal to all federal, state and local government web resources and services.